This is the latest recevied weather packets stored in our database for station/object N4MGC. If no packets are shown the sender has not sent any weather packets the latest 1 day(s).
| Time | Temp. | Humidity | Pressure | Rain* | Wind** | Luminosity | Snow |
|---|---|---|---|---|---|---|---|
| 1778010200 | 26.67° C | 55% | 1012 hPa | 0 mm | 0 m/s | 636 W/m² | - |
| 1778009895 | 26.11° C | 56% | 1012.2 hPa | 0 mm | 0 m/s | 707 W/m² | - |
| 1778009593 | 26.11° C | 59% | 1012.6 hPa | 0 mm | 0 m/s | 727 W/m² | - |
| 1778009291 | 26.11° C | 58% | 1012.7 hPa | 0 mm | 0 m/s | 778 W/m² | - |
| 1778008989 | 26.11° C | 58% | 1012.4 hPa | 0 mm | 1.34 m/s, 234° | 747 W/m² | - |
| 1778008686 | 25.56° C | 59% | 1012.7 hPa | 0 mm | 0 m/s | 688 W/m² | - |
| 1778008384 | 25.56° C | 58% | 1012.6 hPa | 0 mm | 0 m/s | 665 W/m² | - |
| 1778008080 | 25.56° C | 59% | 1012.9 hPa | 0 mm | 0 m/s | 521 W/m² | - |
| 1778007776 | 25° C | 60% | 1012.8 hPa | 0 mm | 0 m/s | 674 W/m² | - |
| 1778007472 | 25° C | 57% | 1013 hPa | 0 mm | 0 m/s | 487 W/m² | - |
| 1778007169 | 24.44° C | 57% | 1013.2 hPa | 0 mm | 0 m/s | 811 W/m² | - |
| 1778006865 | 25° C | 59% | 1013.3 hPa | 0 mm | 0.45 m/s, 232° | 398 W/m² | - |
| 1778006562 | 25.56° C | 60% | 1013.1 hPa | 0 mm | 0 m/s | 294 W/m² | - |
| 1778006259 | 25.56° C | 57% | 1013.3 hPa | 0 mm | 0 m/s | 762 W/m² | - |
| 1778005956 | 25.56° C | 57% | 1013.4 hPa | 0 mm | 0 m/s | 270 W/m² | - |
| 1778005653 | 25.56° C | 58% | 1013.4 hPa | 0 mm | 0 m/s | 800 W/m² | - |
| 1778005350 | 23.89° C | 61% | 1013.8 hPa | 0 mm | 0 m/s | 845 W/m² | - |
| 1778005046 | 24.44° C | 60% | 1013.7 hPa | 0 mm | 1.79 m/s, 231° | 764 W/m² | - |
| 1778004744 | 25° C | 61% | 1013.9 hPa | 0 mm | 0 m/s | 642 W/m² | - |
| 1778004440 | 23.89° C | 59% | 1013.7 hPa | 0 mm | 0 m/s | 239 W/m² | - |
| 1778004137 | 24.44° C | 60% | 1013.8 hPa | 0 mm | 0 m/s | 482 W/m² | - |
| 1778003833 | 23.89° C | 62% | 1013.9 hPa | 0 mm | 0 m/s | 312 W/m² | - |
| 1778003529 | 24.44° C | 59% | 1013.8 hPa | 0 mm | 0 m/s | 351 W/m² | - |
| 1778003226 | 23.89° C | 61% | 1013.9 hPa | 0 mm | 0.45 m/s, 156° | 438 W/m² | - |
| 1778002923 | 23.33° C | 62% | 1014 hPa | 0 mm | 0 m/s | 513 W/m² | - |
* Rain latest hour (hover to see other rain measurements)
** Current wind speed in m/s (hover to see current wind gust speed)